Location: Hlohovi?ky
(49.8934°N, 13.6739°E)
Time: 10:01:06
(UTC+00:00)

SPOT 3 Rocket - Pass Details

Date: 19 May 2025
Orbit: 775 x 790 km, 98.5° (Epoch: 23 June)

Event Time Altitude Azimuth Distance (km) Brightness Sun altitude
Exits shadow 20:03:05 12° 149° (SSE) 2,185 5.2 -9.8°
Maximum altitude 20:07:46 62° 70° (ENE) 876 3.7 -10.3°
Drops below altitude 10° 20:12:51 10° 351° (N) 2,337 7.0 -10.8°
Sets 20:15:11 0° 348° (NNW) 3,269 8.0 -11.0°
